Hammond, LA

8:26 PM CST on December 15, 2019 (GMT -0600)
Hammond Municipal

Weather History for KHDC - October, 2019

Change the Weather History Date:

Thursday, October 10, 2019

  Actual Average (WUND) Record (WUND)
Temperature  
Mean Temperature 78 °F -  
Max Temperature 87 °F - - (-1)
Min Temperature 68 °F - - (-1)
Cooling Degree Days 12    
Growing Degree Days 28 (Base 50)    
Moisture  
Dew Point 70 °F    
Average Humidity 87    
Maximum Humidity 100    
Minimum Humidity 58    
Precipitation  
Precipitation 0.18 in - - ()
Sea Level Pressure  
Sea Level Pressure 29.98 in    
Wind  
Wind Speed 4 mph (SE)    
Max Wind Speed 21 mph    
Max Gust Speed 21 mph    
Visibility 9 miles    
Events Thunderstorm    
Averages and records for this station are not official NWS values.
T = Trace of Precipitation, MM = Missing Value Source: NWS Daily Summary

Daily Weather History Graph

Daily Weather History Graph

Search for Another Location

Airport or City:

Astronomy

Oct. 10, 2019 Rise Set
Actual Time 7:00 AM CDT 6:36 PM CDT
Civil Twilight 6:36 AM CDT 7:00 PM CDT
Nautical Twilight 6:08 AM CDT 7:28 PM CDT
Astronomical Twilight 5:40 AM CDT 7:56 PM CDT
Moon 5:21 PM CDT (10/10) 4:03 AM CDT (10/10)
Length of Visible Light 12h 24m
Length of Day
11h 35m
Waxing Gibbous, 91% of the Moon is Illuminated
Oct 10
Waxing Gibbous
Oct 13
Full
Oct 21
Last Quarter
Oct 27
New
Nov 4
First Quarter

Hourly Weather History & Observations

Time (CDT) Temp. Heat Index Dew Point Humidity Pressure Visibility Wind Dir Wind Speed Gust Speed Precip Events Conditions
12:35 AM 71.6 °F - 69.8 °F 94% 29.99 in 10.0 mi Calm Calm - N/A   Scattered Clouds
12:55 AM 69.8 °F - 68.0 °F 94% 29.98 in 10.0 mi Calm Calm - N/A   Clear
1:15 AM 69.8 °F - 68.0 °F 94% 29.98 in 10.0 mi Calm Calm - N/A   Scattered Clouds
1:35 AM 69.8 °F - 68.0 °F 94% 29.98 in 10.0 mi Calm Calm - N/A   Mostly Cloudy
1:55 AM 69.8 °F - 68.0 °F 94% 29.98 in 10.0 mi Calm Calm - N/A   Scattered Clouds
2:15 AM 69.8 °F - 68.0 °F 94% 29.98 in 10.0 mi Calm Calm - N/A   Clear
2:35 AM 68.0 °F - 68.0 °F 100% 29.98 in 10.0 mi Calm Calm - N/A   Clear
2:50 AM 69.8 °F - 68.0 °F 94% 29.97 in 10.0 mi Calm Calm - N/A   Clear
3:15 AM 68.0 °F - 68.0 °F 100% 29.97 in 10.0 mi Calm Calm - N/A   Clear
3:35 AM 68.0 °F - 68.0 °F 100% 29.97 in 10.0 mi Calm Calm - N/A   Clear
3:55 AM 68.0 °F - 68.0 °F 100% 29.97 in 10.0 mi Calm Calm - N/A   Scattered Clouds
4:15 AM 69.8 °F - 68.0 °F 94% 29.97 in 10.0 mi Calm Calm - N/A   Scattered Clouds
4:35 AM 69.8 °F - 68.0 °F 94% 29.97 in 10.0 mi Calm Calm - N/A   Clear
4:55 AM 68.0 °F - 68.0 °F 100% 29.98 in 10.0 mi Calm Calm - N/A   Scattered Clouds
5:15 AM 69.8 °F - 69.8 °F 100% 29.98 in 10.0 mi Calm Calm - N/A   Scattered Clouds
5:35 AM 69.8 °F - 68.0 °F 94% 29.99 in 10.0 mi Calm Calm - N/A   Scattered Clouds
5:55 AM 69.8 °F - 69.8 °F 100% 29.99 in 10.0 mi Calm Calm - N/A   Clear
6:15 AM 69.8 °F - 69.8 °F 100% 29.99 in 7.0 mi Calm Calm - N/A   Clear
6:35 AM 69.8 °F - 69.8 °F 100% 29.99 in 7.0 mi Calm Calm - N/A   Clear
6:55 AM 69.8 °F - 69.8 °F 100% 29.99 in 7.0 mi Calm Calm - N/A   Clear
7:15 AM 69.8 °F - 69.8 °F 100% 29.99 in 10.0 mi Calm Calm - N/A   Clear
7:35 AM 71.6 °F - 69.8 °F 94% 30.00 in 10.0 mi Calm Calm - N/A   Clear
7:55 AM 71.6 °F - 69.8 °F 94% 30.00 in 10.0 mi Calm Calm - N/A   Clear
8:15 AM 73.4 °F - 71.6 °F 94% 30.01 in 10.0 mi Calm Calm - N/A   Clear
8:35 AM 75.2 °F - 71.6 °F 89% 30.01 in 10.0 mi East 4.6 mph - N/A   Clear
8:55 AM 77.0 °F - 71.6 °F 83% 30.02 in 10.0 mi East 4.6 mph - N/A   Clear
9:15 AM 78.8 °F - 71.6 °F 78% 30.02 in 10.0 mi ESE 4.6 mph - N/A   Clear
9:35 AM 80.6 °F 85.4 °F 73.4 °F 79% 30.02 in 10.0 mi ESE 6.9 mph - N/A   Clear
9:55 AM 82.4 °F 88.2 °F 73.4 °F 74% 30.02 in 10.0 mi ESE 8.1 mph - N/A   Clear
10:15 AM 82.4 °F 88.2 °F 73.4 °F 74% 30.02 in 10.0 mi SE 9.2 mph - N/A   Scattered Clouds
10:35 AM 82.4 °F 87.2 °F 71.6 °F 70% 30.02 in 10.0 mi SE 6.9 mph - N/A   Mostly Cloudy
11:15 AM 82.4 °F 87.2 °F 71.6 °F 70% 30.02 in 10.0 mi SE 12.7 mph - N/A   Overcast
11:35 AM 86.0 °F 91.8 °F 71.6 °F 62% 30.01 in 10.0 mi SSE 11.5 mph - N/A   Overcast
11:55 AM 86.0 °F 91.8 °F 71.6 °F 62% 30.01 in 10.0 mi SE 9.2 mph - N/A   Overcast
12:15 PM 86.0 °F 91.8 °F 71.6 °F 62% 30.00 in 10.0 mi SSE 10.4 mph 16.1 mph N/A   Mostly Cloudy
12:35 PM 86.0 °F 91.8 °F 71.6 °F 62% 29.99 in 10.0 mi SE 12.7 mph 20.7 mph N/A   Overcast
12:55 PM 87.8 °F 93.8 °F 71.6 °F 58% 29.98 in 10.0 mi SSE 11.5 mph 18.4 mph N/A   Overcast
1:10 PM 87.8 °F 93.8 °F 71.6 °F 58% 29.97 in 10.0 mi SE 11.5 mph 19.6 mph N/A   Overcast
1:35 PM 86.0 °F 91.8 °F 71.6 °F 62% 29.96 in 10.0 mi SSE 12.7 mph 18.4 mph N/A   Unknown
1:55 PM 87.8 °F 93.8 °F 71.6 °F 58% 29.95 in 10.0 mi SE 13.8 mph - N/A   Overcast
2:15 PM 87.8 °F 93.8 °F 71.6 °F 58% 29.94 in 10.0 mi SSE 12.7 mph 19.6 mph N/A   Mostly Cloudy
2:35 PM 86.0 °F 91.8 °F 71.6 °F 62% 29.94 in 10.0 mi SSE 15.0 mph 19.6 mph N/A   Mostly Cloudy
2:55 PM 86.0 °F 91.8 °F 71.6 °F 62% 29.93 in 10.0 mi SE 13.8 mph 18.4 mph N/A   Overcast
3:15 PM 84.2 °F 89.6 °F 71.6 °F 66% 29.92 in 10.0 mi SSE 15.0 mph - N/A Thunderstorm Overcast
3:55 PM 82.4 °F 87.2 °F 71.6 °F 70% 29.94 in 10.0 mi SSE 15.0 mph 19.6 mph N/A Thunderstorm Overcast
4:15 PM 80.6 °F 84.6 °F 71.6 °F 74% 29.95 in 10.0 mi South 15.0 mph 18.4 mph N/A Thunderstorm Overcast
4:35 PM 78.8 °F - 73.4 °F 83% 29.94 in 10.0 mi South 10.4 mph - N/A Thunderstorm Mostly Cloudy
4:55 PM 75.2 °F - 73.4 °F 94% 29.95 in 7.0 mi South 9.2 mph - N/A Thunderstorm Overcast
5:15 PM 73.4 °F - 71.6 °F 94% 29.95 in 7.0 mi SE 16.1 mph 19.6 mph 0.02 in Thunderstorm Thunderstorm
5:35 PM 73.4 °F - 71.6 °F 94% 29.95 in 7.0 mi SE 9.2 mph - 0.03 in Thunderstorm Overcast
5:55 PM 71.6 °F - 69.8 °F 94% 29.95 in 10.0 mi SE 9.2 mph - 0.03 in Thunderstorm Thunderstorm
6:15 PM 71.6 °F - 71.6 °F 100% 29.95 in 7.0 mi SSE 9.2 mph - 0.01 in   Overcast
6:35 PM 71.6 °F - 69.8 °F 94% 29.95 in 3.0 mi SE 20.7 mph - 0.02 in   Overcast
6:55 PM 69.8 °F - 68.0 °F 94% 29.94 in 5.0 mi East 13.8 mph - 0.04 in   Overcast
7:15 PM 71.6 °F - 68.0 °F 88% 29.96 in 10.0 mi SE 9.2 mph - 0.01 in   Overcast
7:35 PM 69.8 °F - 69.8 °F 100% 29.96 in 7.0 mi ESE 10.4 mph - 0.02 in   Overcast
7:55 PM 71.6 °F - 68.0 °F 88% 29.96 in 10.0 mi ESE 8.1 mph - 0.02 in   Overcast
8:15 PM 71.6 °F - 69.8 °F 94% 29.97 in 10.0 mi ESE 10.4 mph - 0.01 in   Overcast
8:35 PM 71.6 °F - 69.8 °F 94% 29.97 in 10.0 mi East 11.5 mph - 0.02 in   Overcast
8:55 PM 71.6 °F - 71.6 °F 100% 29.97 in 7.0 mi SSE 5.8 mph - 0.03 in   Overcast
9:15 PM 73.4 °F - 71.6 °F 94% 29.97 in 10.0 mi East 8.1 mph - N/A   Overcast
9:35 PM 73.4 °F - 71.6 °F 94% 29.98 in 10.0 mi South 8.1 mph - 0.01 in Thunderstorm Overcast
9:55 PM 71.6 °F - 71.6 °F 100% 29.99 in 4.0 mi South 4.6 mph - 0.02 in   Overcast
10:15 PM 71.6 °F - 71.6 °F 100% 29.99 in 3.0 mi SSE 4.6 mph - 0.01 in   Overcast
10:35 PM 71.6 °F - 71.6 °F 100% 30.00 in 10.0 mi SE 3.5 mph - 0.01 in   Overcast
10:55 PM 71.6 °F - 71.6 °F 100% 29.99 in 5.0 mi ENE 4.6 mph - 0.02 in   Overcast
11:15 PM 71.6 °F - 69.8 °F 94% 29.98 in 5.0 mi NNE 4.6 mph - 0.01 in   Overcast
11:35 PM 71.6 °F - 69.8 °F 94% 29.98 in 7.0 mi Calm Calm - 0.01 in   Overcast
11:55 PM 71.6 °F - 71.6 °F 100% 29.98 in 7.0 mi North 3.5 mph - 0.02 in   Overcast